Location: Alma
(38.7220°N, 88.9090°W)
Time: 06:48:06
(UTC-06:00)

Explorer 7 - All Passes

Search period start: 12 November 2019 00:00
Search period end: 22 November 2019 00:00
Orbit: 485 x 680 km, 50.3° (Epoch: 12 November)

Date Brightness Start Highest point End Pass type
(mag) Time Alt. Az. Time Alt. Az. Time Alt. Az.
12 Nov - 00:37:50 10° SSE 00:40:28 15° SE 00:43:01 10° E night (unlit)
12 Nov - 02:16:07 10° SW 02:20:37 87° NW 02:24:50 10° NE night (unlit)
12 Nov - 03:58:07 10° WNW 04:01:34 23° NNW 04:04:53 10° NE visible
12 Nov - 05:40:43 10° NW 05:43:12 16° N 05:45:38 10° NE visible
12 Nov - 07:21:20 10° NW 07:24:44 28° NNE 07:28:02 10° E daylight
12 Nov - 09:01:40 10° WNW 09:05:24 53° SW 09:09:03 10° SE daylight
13 Nov - 00:41:29 10° S 00:45:15 25° SE 00:48:51 10° ENE night (unlit)
13 Nov - 02:21:13 10° WSW 02:25:37 56° NNW 02:29:46 10° NE night (unlit)
13 Nov - 04:03:42 10° WNW 04:06:48 19° NNW 04:09:48 10° NNE visible
13 Nov - 05:45:51 10° NW 05:48:31 17° N 05:51:06 10° NE visible
13 Nov - 07:26:10 10° NW 07:29:52 39° NNE 07:33:26 10° E daylight
13 Nov - 09:06:54 10° WNW 09:10:15 30° SW 09:13:33 10° SSE daylight
14 Nov - 00:45:45 10° SSW 00:50:06 42° SE 00:54:12 10° ENE night (unlit)
14 Nov - 02:26:31 10° W 02:30:41 38° NNW 02:34:38 10° NE night (unlit)
14 Nov - 04:09:15 10° NW 04:12:05 17° N 04:14:49 10° NE visible
14 Nov - 05:50:50 10° NW 05:53:47 19° NNE 05:56:39 10° ENE visible
14 Nov - 07:31:03 10° NW 07:34:56 61° NNE 07:38:40 10° ESE daylight
14 Nov - 09:12:31 10° W 09:15:02 17° SW 09:17:31 10° S daylight
14 Nov - 23:13:52 10° SE 23:14:58 11° SE 23:16:04 10° ESE night (unlit)
15 Nov - 00:50:24 10° SW 00:54:59 69° SE 00:59:19 10° ENE night (unlit)
15 Nov - 02:31:57 10° W 02:35:48 28° NNW 02:39:29 10° NE night (unlit)
15 Nov - 04:14:43 10° NW 04:17:24 16° N 04:19:59 10° NE visible
15 Nov - 05:55:44 10° NW 05:59:02 24° NNE 06:02:13 10° ENE visible
15 Nov - 07:36:00 10° NW 07:39:55 79° SW 07:43:40 10° SE daylight
15 Nov - 23:16:27 10° S 23:19:43 19° SE 23:22:52 10° E night (unlit)
16 Nov - 00:55:20 10° WSW 00:59:56 76° NW 01:04:18 10° NE night (unlit)
16 Nov - 02:37:30 10° WNW 02:41:00 23° NNW 02:44:22 10° NE night (unlit)
16 Nov - 04:19:58 10° NW 04:22:42 16° N 04:25:19 10° NE visible
16 Nov - 06:00:35 10° NW 06:04:13 31° NNE 06:07:41 10° E visible
16 Nov - 07:41:05 10° WNW 07:44:48 44° SW 07:48:24 10° SSE daylight
16 Nov - 23:20:23 10° SSW 23:24:30 31° SE 23:28:27 10° ENE night (unlit)
17 Nov - 01:00:29 10° WSW 01:04:58 50° NNW 01:09:12 10° NE night (unlit)
17 Nov - 02:43:04 10° WNW 02:46:15 19° NNW 02:49:19 10° NE night (unlit)
17 Nov - 04:25:05 10° NW 04:28:00 18° N 04:30:49 10° NE visible
17 Nov - 06:05:26 10° NW 06:09:20 45° NNE 06:13:02 10° ESE visible
17 Nov - 07:46:23 10° WNW 07:49:37 25° SW 07:52:46 10° S daylight
17 Nov - 23:24:47 10° SSW 23:29:21 50° SE 23:33:42 10° ENE night (unlit)
18 Nov - 01:05:49 10° W 01:10:03 35° NNW 01:14:04 10° NE night (unlit)
18 Nov - 02:48:35 10° NW 02:51:32 17° N 02:54:24 10° NE visible
18 Nov - 04:30:02 10° NW 04:33:16 21° NNE 04:36:22 10° ENE visible
18 Nov - 06:10:20 10° NW 06:14:22 73° NE 06:18:11 10° ESE visible
18 Nov - 07:52:12 10° W 07:54:22 14° SW 07:56:28 10° SSW daylight
18 Nov - 21:51:51 10° SSE 21:54:10 14° SE 21:56:28 10° E night (unlit)
18 Nov - 23:29:32 10° SW 23:34:16 81° SE 23:38:45 10° NE night (unlit)
19 Nov - 01:11:17 10° W 01:15:12 27° NNW 01:18:56 10° NE night (unlit)
19 Nov - 02:53:59 10° NW 02:56:51 17° N 02:59:37 10° NE visible
19 Nov - 04:34:56 10° NW 04:38:30 26° NNE 04:41:53 10° E visible
19 Nov - 06:15:19 10° WNW 06:19:19 67° SW 06:23:06 10° SE visible
19 Nov - 21:55:12 10° S 21:58:55 23° SE 22:02:32 10° E night (unlit)
19 Nov - 23:34:32 10° WSW 23:39:14 67° NW 23:43:42 10° NE night (unlit)
20 Nov - 01:16:50 10° WNW 01:20:25 22° NNW 01:23:51 10° NE night (unlit)
20 Nov - 02:59:12 10° NW 03:02:10 18° N 03:05:01 10° NE visible
20 Nov - 04:39:47 10° NW 04:43:39 36° NNE 04:47:18 10° E visible
20 Nov - 06:20:27 10° WNW 06:24:10 37° SW 06:27:43 10° SSE daylight
20 Nov - 21:59:20 10° SSW 22:03:43 36° SE 22:07:58 10° ENE night (unlit)
20 Nov - 23:39:44 10° WSW 23:44:17 45° NNW 23:48:36 10° NE night (unlit)
21 Nov - 01:22:23 10° WNW 01:25:40 19° N 01:28:50 10° NE night (unlit)
21 Nov - 03:04:16 10° NW 03:07:27 20° N 03:10:31 10° ENE visible
21 Nov - 04:44:39 10° NW 04:48:44 53° NNE 04:52:36 10° ESE visible
21 Nov - 06:25:51 10° W 06:28:57 22° SW 06:31:56 10° S daylight
21 Nov - 22:03:51 10° SW 22:08:35 59° SE 22:13:08 10° ENE night (unlit)
21 Nov - 23:45:07 10° W 23:49:23 33° NNW 23:53:28 10° NE night (unlit)
